Location: Sunny Point
(33.0946°N, 85.0574°W)
Time: 06:32:10
(UTC+00:00)

Tiangong - Visible Passes

Search period start: 18 May 2024 00:00
Search period end: 28 May 2024 00:00
Orbit: 372 x 376 km, 41.5° (Epoch: 17 May)

Date Brightness Start Highest point End Pass type
(mag) Time Alt. Az. Time Alt. Az. Time Alt. Az.
18 May -0.2 09:34:02 13° S 09:35:52 21° SE 09:38:16 10° E visible
19 May -2.2 10:06:12 10° WSW 10:09:17 83° SSE 10:12:23 10° ENE visible
20 May -1.3 09:05:51 34° SSE 09:06:15 36° SE 09:09:07 10° ENE visible
21 May -1.9 09:37:29 18° W 09:39:33 58° NNW 09:42:36 10° NE visible
22 May -1.2 08:37:00 44° E 08:37:00 44° E 08:39:18 10° ENE visible
23 May -1.1 09:08:20 27° WNW 09:09:26 37° NNW 09:12:20 10° NE visible
24 May 0.2 08:07:34 23° NE 08:07:34 23° NE 08:08:56 10° ENE visible
24 May 0.1 09:40:21 10° WNW 09:42:45 20° N 09:45:09 10° NE visible
25 May -0.5 08:38:38 27° NNW 08:38:55 27° NNW 08:41:38 10° NE visible
26 May 1.2 07:37:39 13° NE 07:37:39 13° NE 07:38:03 10° NE visible
26 May 0.4 09:09:52 10° NW 09:12:05 18° N 09:14:18 10° NE visible
27 May 0.3 08:08:30 21° N 08:08:30 21° N 08:10:31 10° NE visible
27 May 0.5 09:43:03 10° NW 09:45:14 17° N 09:47:24 10° NE visible
